KI5NXU Weather Reports


Display with metric or nautical units.
time (UTC)temp
F
wind
direction
speed
MPH
gust
MPH
rain 1hr
in
rain 24hr
in
rain mn
in
humidity
%
barometer
mb
20260902112841 78 130 0.0 0.0 0.00 0.00 0.00 74 1015.1
20260902112337 77 130 0.0 1.0 0.00 0.00 0.00 75 1015.1
20260902111833 78 130 0.0 0.0 0.00 0.00 0.00 74 1015.0
20260902111329 78 129 0.0 0.0 0.00 0.00 0.00 74 1015.1
20260902110824 78 133 0.0 0.0 0.00 0.00 0.00 74 1015.0
20260902110320 77 142 1.0 2.0 0.00 0.00 0.00 75 1015.1
20260902105820 77 121 0.0 0.0 0.00 0.00 0.00 75 1014.9
20260902105315 77 97 0.0 0.0 0.00 0.00 0.00 75 1015.2
20260902104810 77 96 1.0 1.0 0.00 0.00 0.00 75 1015.3
20260902104306 77 111 0.0 0.0 0.00 0.00 0.00 75 1015.0
20260902103806 77 99 0.0 0.0 0.00 0.00 0.00 74 1015.1
20260902103301 77 97 1.0 1.0 0.00 0.00 0.00 74 1015.2
20260902102756 77 117 0.0 0.0 0.00 0.00 0.00 74 1015.2
20260902102254 77 121 0.0 0.0 0.00 0.00 0.00 74 1015.2
20260902101748 78 122 0.0 0.0 0.00 0.00 0.00 74 1015.0
20260902101243 78 126 0.0 0.0 0.00 0.00 0.00 73 1015.1
20260902100742 78 127 0.0 0.0 0.00 0.00 0.00 72 1015.0
20260902100237 79 133 0.0 0.0 0.00 0.00 0.00 72 1015.3
20260902095737 79 97 1.0 1.0 0.00 0.00 0.00 71 1014.8
20260902095232 79 134 1.0 1.0 0.00 0.00 0.00 71 1015.1
20260902094727 79 141 1.0 1.0 0.00 0.00 0.00 71 1015.1
20260902094223 79 131 0.0 1.0 0.00 0.00 0.00 71 1015.1
20260902093722 79 130 1.0 1.0 0.00 0.00 0.00 70 1015.1
20260902093217 79 133 0.0 1.0 0.00 0.00 0.00 70 1015.1
20260902092712 79 136 0.0 1.0 0.00 0.00 0.00 70 1014.9
20260902092207 80 138 1.0 1.0 0.00 0.00 0.00 69 1015.1
20260902091706 80 131 0.0 0.0 0.00 0.00 0.00 69 1015.0
20260902091203 80 137 1.0 1.0 0.00 0.00 0.00 68 1015.2
20260902090659 80 142 1.0 1.0 0.00 0.00 0.00 68 1015.0
20260902090158 80 138 2.0 2.0 0.00 0.00 0.00 68 1015.0
20260902085658 81 151 3.0 3.0 0.00 0.00 0.00 67 1014.8
20260902085153 81 157 2.0 3.0 0.00 0.00 0.00 67 1014.7
20260902084649 81 142 1.0 2.0 0.00 0.00 0.00 67 1015.0
20260902084145 81 140 2.0 2.0 0.00 0.00 0.00 66 1015.3
20260902083640 81 148 2.0 2.0 0.00 0.00 0.00 65 1015.1
20260902083139 81 152 2.0 2.0 0.00 0.00 0.00 65 1014.9
20260902082635 81 144 2.0 2.0 0.00 0.00 0.00 65 1015.2
20260902082131 81 145 2.0 2.0 0.00 0.00 0.00 65 1015.0
20260902081628 82 140 0.0 1.0 0.00 0.00 0.00 64 1015.4
20260902081122 82 140 1.0 2.0 0.00 0.00 0.00 64 1015.0
20260902080617 82 149 1.0 2.0 0.00 0.00 0.00 63 1015.1
20260902080114 82 138 3.0 3.0 0.00 0.00 0.00 63 1015.3
20260902075613 82 144 1.0 2.0 0.00 0.00 0.00 63 1015.2
20260902075110 82 138 0.0 1.0 0.00 0.00 0.00 62 1015.2
20260902074605 83 135 1.0 1.0 0.00 0.00 0.00 62 1015.2
20260902074100 83 147 1.0 2.0 0.00 0.00 0.00 61 1015.1
20260902073555 83 141 2.0 3.0 0.00 0.00 0.00 61 1015.0
20260902073051 83 145 1.0 2.0 0.00 0.00 0.00 61 1015.1
20260902072547 84 160 3.0 5.0 0.00 0.00 0.00 60 1015.1
20260902072044 84 145 1.0 1.0 0.00 0.00 0.00 60 1015.3
20260902071543 83 135 3.0 5.0 0.00 0.00 0.00 61 1015.0
20260902071039 83 146 2.0 2.0 0.00 0.00 0.00 61 1015.0
20260902070534 83 144 1.0 1.0 0.00 0.00 0.00 61 1015.3
20260902070030 82 142 2.0 2.0 0.00 0.00 0.00 62 1015.3
20260902065529 82 141 2.0 2.0 0.00 0.00 0.00 61 1015.4
20260902065024 82 144 1.0 2.0 0.00 0.00 0.00 61 1014.9
20260902064520 82 135 1.0 1.0 0.00 0.00 0.00 61 1015.1
20260902064015 82 135 1.0 1.0 0.00 0.00 0.00 61 1014.9
20260902063515 82 136 1.0 1.0 0.00 0.00 0.00 61 1015.0
20260902063010 82 123 1.0 1.0 0.00 0.00 0.00 61 1015.0
20260902062508 83 139 2.0 2.0 0.00 0.00 0.00 60 1014.8
20260902062004 83 149 2.0 3.0 0.00 0.00 0.00 60 1014.9
20260902061459 83 125 1.0 1.0 0.00 0.00 0.00 59 1015.1
20260902060955 84 151 2.0 2.0 0.00 0.00 0.00 59 1015.0
20260902060451 84 142 1.0 2.0 0.00 0.00 0.00 58 1014.9
20260902055947 84 144 3.0 3.0 0.00 0.00 0.00 58 1015.1
20260902055443 84 128 2.0 2.0 0.00 0.00 0.00 57 1015.1
20260902054938 84 145 2.0 2.0 0.00 0.00 0.00 57 1014.8
20260902054433 84 147 1.0 2.0 0.00 0.00 0.00 57 1014.8
20260902053928 84 146 2.0 2.0 0.00 0.00 0.00 57 1014.9
20260902053423 85 143 1.0 2.0 0.00 0.00 0.00 57 1014.9
20260902052922 85 150 2.0 2.0 0.00 0.00 0.00 56 1014.8
20260902052418 85 145 1.0 2.0 0.00 0.00 0.00 56 1014.9
20260902051913 85 153 3.0 3.0 0.00 0.00 0.00 56 1014.9
20260902051413 85 150 2.0 2.0 0.00 0.00 0.00 56 1014.9
20260902050912 85 148 1.0 2.0 0.00 0.00 0.00 56 1014.8
20260902050412 85 146 3.0 3.0 0.00 0.00 0.00 56 1014.9
20260902045907 85 147 2.0 2.0 0.00 0.00 0.00 56 1014.7
20260902045403 86 145 0.0 1.0 0.00 0.00 0.00 56 1014.8
20260902044900 86 141 1.0 1.0 0.00 0.00 0.00 55 1014.8
20260902044400 86 143 1.0 1.0 0.00 0.00 0.00 55 1014.9
20260902043900 86 144 1.0 2.0 0.00 0.00 0.00 55 1014.7
20260902043355 86 148 2.0 2.0 0.00 0.00 0.00 54 1014.7
20260902042850 86 154 2.0 2.0 0.00 0.00 0.00 55 1015.0
20260902042349 86 145 1.0 2.0 0.00 0.00 0.00 55 1014.9
20260902041845 86 140 1.0 2.0 0.00 0.00 0.00 55 1014.8
20260902041339 86 135 1.0 1.0 0.00 0.00 0.00 54 1014.7
20260902040838 86 142 1.0 1.0 0.00 0.00 0.00 54 1014.9
20260902040334 86 138 2.0 2.0 0.00 0.00 0.00 54 1014.8
20260902035833 87 142 1.0 2.0 0.00 0.00 0.00 53 1015.0
20260902035328 87 143 2.0 2.0 0.00 0.00 0.00 53 1014.7
20260902034826 87 148 2.0 2.0 0.00 0.00 0.00 52 1014.5
20260902034322 87 151 2.0 2.0 0.00 0.00 0.00 52 1014.6
20260902033820 87 150 2.0 2.0 0.00 0.00 0.00 52 1014.7
20260902033315 87 142 1.0 1.0 0.00 0.00 0.00 52 1014.9
20260902032814 87 134 1.0 1.0 0.00 0.00 0.00 51 1014.8
20260902032309 87 146 1.0 2.0 0.00 0.00 0.00 51 1014.6
20260902031809 88 145 1.0 2.0 0.00 0.00 0.00 51 1014.6
20260902031305 88 138 1.0 1.0 0.00 0.00 0.00 51 1014.3
20260902030800 88 133 1.0 1.0 0.00 0.00 0.00 51 1014.3
20260902030255 88 102 1.0 2.0 0.00 0.00 0.00 50 1014.1
20260902025754 88 121 1.0 1.0 0.00 0.00 0.00 50 1014.2
20260902025249 88 134 1.0 1.0 0.00 0.00 0.00 50 1014.2
20260902024744 89 127 1.0 1.0 0.00 0.00 0.00 49 1014.0
20260902024239 89 133 1.0 1.0 0.00 0.00 0.00 49 1013.9
20260902023735 89 140 1.0 1.0 0.00 0.00 0.00 48 1013.8
20260902023230 89 121 1.0 1.0 0.00 0.00 0.00 48 1013.7
20260902022730 90 137 1.0 1.0 0.00 0.00 0.00 47 1013.8
20260902022226 90 122 2.0 3.0 0.00 0.00 0.00 46 1013.5
20260902021721 91 122 1.0 1.0 0.00 0.00 0.00 46 1013.5
20260902021215 91 145 3.0 3.0 0.00 0.00 0.00 45 1013.5
20260902020712 91 178 3.0 3.0 0.00 0.00 0.00 45 1013.3
20260902020208 91 141 2.0 2.0 0.00 0.00 0.00 45 1013.0
20260902015703 91 128 2.0 2.0 0.00 0.00 0.00 45 1013.3
20260902015200 91 139 2.0 2.0 0.00 0.00 0.00 45 1013.3
20260902014700 91 133 1.0 2.0 0.00 0.00 0.00 45 1013.2
20260902014155 91 153 3.0 3.0 0.00 0.00 0.00 45 1013.0
20260902013654 92 174 4.0 5.0 0.00 0.00 0.00 45 1013.0
20260902013150 92 127 2.0 2.0 0.00 0.00 0.00 44 1013.0
20260902012646 92 138 1.0 2.0 0.00 0.00 0.00 44 1013.2
20260902012141 92 148 2.0 2.0 0.00 0.00 0.00 44 1013.0
20260902011636 93 138 2.0 2.0 0.00 0.00 0.00 43 1012.9
20260902011131 93 148 2.0 2.0 0.00 0.00 0.00 43 1012.9
20260902010631 93 150 2.0 2.0 0.00 0.00 0.00 42 1013.0
20260902010127 93 127 1.0 2.0 0.00 0.00 0.00 42 1012.8
20260902005624 93 123 1.0 1.0 0.00 0.00 0.00 41 1012.7
20260902005121 94 133 1.0 1.0 0.00 0.00 0.00 40 1013.0
20260902004620 94 142 2.0 3.0 0.00 0.00 0.00 40 1012.9
20260902004115 95 124 0.0 1.0 0.00 0.00 0.00 40 1012.8
20260902003610 95 138 1.0 1.0 0.00 0.00 0.00 39 1012.9
20260902003105 96 141 1.0 2.0 0.00 0.00 0.00 39 1012.9
20260902002555 96 137 2.0 2.0 0.00 0.00 0.00 38 1013.0
20260902002050 96 145 3.0 6.0 0.00 0.00 0.00 38 1013.0
20260902001545 96 134 1.0 1.0 0.00 0.00 0.00 38 1013.0
20260902001039 96 141 2.0 2.0 0.00 0.00 0.00 38 1012.9
20260902000534 96 143 2.0 2.0 0.00 0.00 0.00 37 1013.2
20260902000030 96 134 2.0 2.0 0.00 0.00 0.00 38 1012.9
20260901235524 97 142 1.0 1.0 0.00 0.00 0.00 37 1013.0
20260901235019 97 132 1.0 1.0 0.00 0.00 0.00 37 1012.7
20260901234518 97 135 2.0 2.0 0.00 0.00 0.00 37 1012.8
20260901234013 97 141 1.0 1.0 0.00 0.00 0.00 37 1012.8
20260901233508 97 144 1.0 1.0 0.00 0.00 0.00 37 1012.8
20260901233005 97 147 2.0 2.0 0.00 0.00 0.00 37 1013.0
20260901232459 98 144 3.0 6.0 0.00 0.00 0.00 36 1012.9
20260901231954 98 150 2.0 2.0 0.00 0.00 0.00 36 1013.3
20260901231451 99 165 3.0 3.0 0.00 0.00 0.00 35 1012.8
20260901230948 100 137 3.0 3.0 0.00 0.00 0.00 35 1012.9
20260901230447 101 118 3.0 3.0 0.00 0.00 0.00 34 1013.0
20260901225942 101 170 4.0 7.0 0.00 0.00 0.00 33 1012.9
20260901225441 101 165 3.0 3.0 0.00 0.00 0.00 33 1012.9
20260901224937 100 139 3.0 3.0 0.00 0.00 0.00 34 1012.9
20260901224433 101 168 3.0 5.0 0.00 0.00 0.00 33 1012.9
20260901223929 99 153 1.0 2.0 0.00 0.00 0.00 35 1013.2
20260901223424 99 161 2.0 2.0 0.00 0.00 0.00 36 1013.3
20260901222919 99 177 3.0 5.0 0.00 0.00 0.00 35 1012.9
20260901222416 101 177 2.0 3.0 0.00 0.00 0.00 34 1012.9
20260901221911 102 181 5.0 8.0 0.00 0.00 0.00 33 1012.9
20260901221407 102 162 3.0 3.0 0.00 0.00 0.00 34 1013.0
20260901220902 103 136 7.0 13.0 0.00 0.00 0.00 33 1012.9
20260901220401 101 182 2.0 2.0 0.00 0.00 0.00 34 1012.9
20260901215900 102 217 7.0 10.0 0.00 0.00 0.00 34 1013.0
20260901215359 103 166 4.0 5.0 0.00 0.00 0.00 33 1013.3
20260901214858 103 203 6.0 8.0 0.00 0.00 0.00 33 1013.2
20260901214357 102 157 2.0 3.0 0.00 0.00 0.00 32 1013.4
20260901213856 102 126 1.0 1.0 0.00 0.00 0.00 33 1013.2
20260901213351 101 186 4.0 5.0 0.00 0.00 0.00 34 1013.3
20260901212845 101 201 4.0 9.0 0.00 0.00 0.00 34 1013.2
20260901212341 101 95 3.0 5.0 0.00 0.00 0.00 33 1013.4
20260901211837 99 164 1.0 1.0 0.00 0.00 0.00 35 1013.5
20260901211332 99 120 2.0 2.0 0.00 0.00 0.00 37 1013.5
20260901210828 98 144 1.0 1.0 0.00 0.00 0.00 38 1013.6
20260901210324 98 147 2.0 3.0 0.00 0.00 0.00 38 1013.7
20260901205820 97 127 0.0 0.0 0.00 0.00 0.00 38 1013.6
20260901205320 98 153 1.0 1.0 0.00 0.00 0.00 38 1014.0
20260901204815 99 147 3.0 5.0 0.00 0.00 0.00 37 1014.1
20260901204311 100 139 1.0 2.0 0.00 0.00 0.00 37 1013.7
20260901203810 102 164 2.0 3.0 0.00 0.00 0.00 35 1013.9
20260901203306 101 222 6.0 7.0 0.00 0.00 0.00 35 1014.0
20260901202806 97 187 2.0 3.0 0.00 0.00 0.00 38 1013.9
20260901202301 97 190 3.0 3.0 0.00 0.00 0.00 39 1014.0
20260901201757 97 138 2.0 2.0 0.00 0.00 0.00 39 1014.1
20260901201256 96 142 1.0 1.0 0.00 0.00 0.00 40 1014.2
20260901200750 97 153 2.0 2.0 0.00 0.00 0.00 40 1014.3
20260901200246 98 174 2.0 2.0 0.00 0.00 0.00 39 1014.3
20260901195744 97 145 1.0 2.0 0.00 0.00 0.00 40 1014.7
20260901195238 97 157 1.0 2.0 0.00 0.00 0.00 39 1014.6
20260901194733 97 146 2.0 3.0 0.00 0.00 0.00 40 1014.5
20260901194222 98 97 1.0 5.0 0.00 0.00 0.00 39 1014.7
20260901193719 98 148 3.0 3.0 0.00 0.00 0.00 39 1014.8
20260901193217 101 121 1.0 2.0 0.00 0.00 0.00 37 1014.7
20260901192712 100 141 2.0 3.0 0.00 0.00 0.00 36 1014.6
20260901192208 101 190 3.0 5.0 0.00 0.00 0.00 36 1014.8
20260901191704 101 162 2.0 3.0 0.00 0.00 0.00 35 1014.8
20260901191200 100 178 2.0 3.0 0.00 0.00 0.00 36 1014.9
20260901190655 100 162 1.0 1.0 0.00 0.00 0.00 36 1015.0
20260901190154 101 139 4.0 7.0 0.00 0.00 0.00 36 1015.0
20260901185653 100 160 4.0 6.0 0.00 0.00 0.00 36 1015.2
20260901185151 100 138 1.0 2.0 0.00 0.00 0.00 38 1015.3
20260901184647 99 153 3.0 7.0 0.00 0.00 0.00 39 1015.3
20260901184142 99 60 2.0 2.0 0.00 0.00 0.00 38 1015.3
20260901183637 100 157 3.0 5.0 0.00 0.00 0.00 38 1015.4
20260901183132 99 162 7.0 10.0 0.00 0.00 0.00 38 1015.5
20260901182629 97 147 5.0 7.0 0.00 0.00 0.00 40 1015.4
20260901182128 97 102 6.0 8.0 0.00 0.00 0.00 41 1015.7
20260901181627 97 153 2.0 2.0 0.00 0.00 0.00 41 1015.7
20260901181122 98 112 3.0 3.0 0.00 0.00 0.00 41 1015.6
20260901180616 97 138 4.0 6.0 0.00 0.00 0.00 40 1015.8
20260901180116 98 149 1.0 1.0 0.00 0.00 0.00 38 1016.0
20260901175614 100 162 4.0 6.0 0.00 0.00 0.00 35 1016.1
20260901175109 99 146 3.0 3.0 0.00 0.00 0.00 36 1015.9
20260901174605 99 150 3.0 5.0 0.00 0.00 0.00 39 1016.0
20260901174101 99 126 3.0 5.0 0.00 0.00 0.00 39 1016.4
20260901173555 99 144 3.0 3.0 0.00 0.00 0.00 38 1016.3
20260901173051 99 138 4.0 6.0 0.00 0.00 0.00 38 1016.4
20260901172547 98 125 1.0 1.0 0.00 0.00 0.00 40 1016.4
20260901172045 97 136 3.0 5.0 0.00 0.00 0.00 41 1016.4
20260901171539 95 218 4.0 6.0 0.00 0.00 0.00 43 1016.6
20260901171037 93 159 1.0 1.0 0.00 0.00 0.00 46 1016.7
20260901170532 94 217 7.0 11.0 0.00 0.00 0.00 46 1016.7
20260901170026 96 131 1.0 1.0 0.00 0.00 0.00 43 1016.6
20260901165521 96 145 1.0 2.0 0.00 0.00 0.00 43 1016.8
20260901165016 95 192 3.0 5.0 0.00 0.00 0.00 47 1016.9
20260901164512 94 206 2.0 2.0 0.00 0.00 0.00 48 1016.9
20260901164007 94 246 5.0 7.0 0.00 0.00 0.00 50 1017.0
20260901163502 93 243 3.0 3.0 0.00 0.00 0.00 51 1016.8
20260901163001 93 243 5.0 7.0 0.00 0.00 0.00 53 1016.8
20260901162457 92 244 7.0 9.0 0.00 0.00 0.00 51 1016.8
20260901161955 92 295 4.0 7.0 0.00 0.00 0.00 51 1016.9
20260901161455 92 231 3.0 3.0 0.00 0.00 0.00 52 1017.0
20260901160949 91 300 7.0 8.0 0.00 0.00 0.00 52 1016.8
20260901160446 91 266 6.0 8.0 0.00 0.00 0.00 53 1016.9
20260901155944 90 204 1.0 2.0 0.00 0.00 0.00 54 1017.0
20260901155444 91 296 6.0 7.0 0.00 0.00 0.00 53 1017.0
20260901154941 90 226 3.0 5.0 0.00 0.00 0.00 53 1016.8
20260901154440 90 177 2.0 3.0 0.00 0.00 0.00 54 1016.9
20260901153935 90 222 3.0 3.0 0.00 0.00 0.00 54 1017.0
20260901153430 89 212 2.0 2.0 0.00 0.00 0.00 55 1017.2
20260901152929 89 228 5.0 6.0 0.00 0.00 0.00 55 1017.1
20260901152424 88 224 3.0 5.0 0.00 0.00 0.00 56 1017.0
20260901151924 88 199 2.0 2.0 0.00 0.00 0.00 56 1016.8
20260901151423 88 215 3.0 3.0 0.00 0.00 0.00 57 1017.0
20260901150923 87 240 3.0 3.0 0.00 0.00 0.00 57 1017.1
20260901150421 87 157 1.0 1.0 0.00 0.00 0.00 58 1017.0
20260901145918 87 308 3.0 5.0 0.00 0.00 0.00 58 1017.2
20260901145413 86 302 5.0 6.0 0.00 0.00 0.00 58 1017.2
20260901144908 86 227 2.0 2.0 0.00 0.00 0.00 59 1017.3
20260901144404 86 207 5.0 5.0 0.00 0.00 0.00 59 1017.1
20260901143859 86 228 4.0 6.0 0.00 0.00 0.00 61 1017.0
20260901143355 85 208 1.0 1.0 0.00 0.00 0.00 62 1017.2
20260901142852 85 156 1.0 2.0 0.00 0.00 0.00 61 1017.3
20260901142350 84 229 6.0 7.0 0.00 0.00 0.00 61 1017.2
20260901141846 84 195 3.0 3.0 0.00 0.00 0.00 62 1017.2
20260901141341 84 183 2.0 2.0 0.00 0.00 0.00 63 1017.1
20260901140840 83 217 3.0 3.0 0.00 0.00 0.00 63 1017.2
20260901140338 83 214 3.0 5.0 0.00 0.00 0.00 64 1017.3
20260901135833 82 131 1.0 1.0 0.00 0.00 0.00 64 1017.1
20260901135328 82 359 1.0 1.0 0.00 0.00 0.00 64 1017.2
20260901134824 82 44 2.0 2.0 0.00 0.00 0.00 63 1017.2
20260901134319 82 97 0.0 1.0 0.00 0.00 0.00 63 1017.2
20260901133813 83 154 1.0 1.0 0.00 0.00 0.00 62 1017.3
20260901133312 82 128 0.0 0.0 0.00 0.00 0.00 63 1017.1
20260901132810 82 112 0.0 1.0 0.00 0.00 0.00 63 1017.2
20260901132307 80 101 0.0 0.0 0.00 0.00 0.00 66 1017.2
20260901131800 79 101 0.0 1.0 0.00 0.00 0.00 67 1017.1
20260901131300 79 101 0.0 0.0 0.00 0.00 0.00 66 1017.2
20260901130754 77 101 0.0 0.0 0.00 0.00 0.00 68 1017.1
20260901130249 77 101 0.0 0.0 0.00 0.00 0.00 69 1017.0
20260901125747 76 100 0.0 1.0 0.00 0.00 0.00 69 1017.0
20260901125242 75 101 1.0 1.0 0.00 0.00 0.00 69 1017.1
20260901124742 76 103 1.0 2.0 0.00 0.00 0.00 68 1016.8
20260901124236 76 96 1.0 1.0 0.00 0.00 0.00 68 1016.7
20260901123736 76 92 0.0 0.0 0.00 0.00 0.00 69 1016.8
20260901123231 76 78 2.0 2.0 0.00 0.00 0.00 68 1017.0
20260901122729 76 108 2.0 2.0 0.00 0.00 0.00 68 1016.8
20260901122225 76 126 0.0 1.0 0.00 0.00 0.00 69 1016.4
20260901121719 76 126 0.0 0.0 0.00 0.00 0.00 69 1016.4
20260901121215 76 126 0.0 0.0 0.00 0.00 0.00 68 1016.3
20260901120714 76 126 0.0 1.0 0.00 0.00 0.00 68 1016.3
20260901120209 76 127 0.0 1.0 0.00 0.00 0.00 68 1016.3
20260901115704 76 127 1.0 1.0 0.00 0.00 0.00 68 1016.3
20260901115200 76 127 0.0 1.0 0.00 0.00 0.00 68 1016.6
20260901114657 76 127 0.0 0.0 0.00 0.00 0.00 68 1016.3
20260901114156 75 115 0.0 0.0 0.00 0.00 0.00 69 1016.2
20260901113655 75 116 0.0 0.0 0.00 0.00 0.00 68 1016.6